Weather observations for the past three days for
Las Cruces, Las Cruces International Airport
Metric (Imperial)
Date Time (mdt) Wind (kph) Vis. (km) Weather Sky Cond. Temperature (ºC) Relative Humidity Wind Chill (°C) Heat Index (°C) Pressure Precipitation (cm)
Air Dwpt 6 hour altimeter (cm) sea level (mb) 1 hr 3 hr 6 hr
Max. Min.
06 03:15 W 7 16.09 Fair CLR 9 0 54% 8 76.15 0.0
06 02:55 W 11 16.09 Fair CLR 9.7 0 51% 8 76.15 0.0
06 02:35 W 15 16.09 Fair CLR 10.7 0 48% 76.15 0.0
06 02:15 W 13 16.09 Fair CLR 11.7 -0.1 44% 76.15 0.0
06 01:55 W 15 16.09 Fair CLR 12.8 -0.1 41% 76.15 0.0
06 01:35 W 19 16.09 Fair CLR 13.2 -0.3 40% 76.12 0.0
06 01:15 W 19 16.09 Fair CLR 13.5 -0.6 38% 76.1 0.0
06 00:55 W 20 16.09 Fair CLR 13.8 -1.5 35% 76.1 0.0
06 00:15 W 19 16.09 Fair CLR 14.2 -2.6 31% 76.07 0.0
05 23:55 W 19 16.09 Fair CLR 14.5 -3 22.5 14.5 30% 76.07 0.0
05 23:35 SW 17 16.09 Fair CLR 15.3 -3.1 28% 76.05 0.0
05 23:15 SW 15 16.09 Fair CLR 15.3 -3.2 28% 76.05 0.0
05 22:55 SW 15 16.09 Fair CLR 16.6 -4 24% 76.05 0.0
05 22:35 SW 17 16.09 Fair CLR 17.1 -4.6 22% 76.05 0.0
05 22:15 SW 15 16.09 Fair CLR 17.3 -5 22% 76.02 0.0
05 21:55 SW 17 G 26 16.09 Fair CLR 18.6 -5.5 19% 76 0.0
05 21:35 SW 22 16.09 Fair CLR 19 -6.1 18% 75.95 0.0
05 21:15 SW 22 G 28 16.09 Fair CLR 19.1 -6 18% 75.95 0.0
05 20:55 SW 17 16.09 Fair CLR 19.2 -5.3 19% 75.92 0.0
05 20:35 SW 17 16.09 Fair CLR 19.5 -4.7 19% 75.9 0.0
05 20:15 W 17 16.09 Fair CLR 20 -4.9 18% 75.9 0.0
05 19:55 W 19 16.09 Fair CLR 20.5 -4.6 18% 75.87 0.0
05 19:35 W 26 G 37 16.09 Fair CLR 21.3 -4.5 17% 75.87 0.0
05 19:15 W 26 G 31 16.09 Fair CLR 21.5 -3.8 18% 75.87 0.0
05 18:55 W 20 16.09 Fair CLR 21.5 -0.4 23% 75.87 0.0
05 18:35 W 24 16.09 Partly Cloudy SCT100 21.8 0.5 24% 75.87 0.0
05 18:15 W 24 G 33 16.09 Partly Cloudy SCT100 22 0.3 24% 75.87 0.0
05 17:55 SW 20 G 37 16.09 Fair CLR 22.5 -1.7 23.5 17 20% 75.84 0.0
05 17:35 W 22 G 28 16.09 Partly Cloudy SCT085 SCT110 22 -0.1 23% 75.84 0.0
05 17:15 SW 19 G 37 16.09 Partly Cloudy SCT090 SCT110 22.2 0.3 23% 75.87 0.0
05 16:55 W 30 G 37 16.09 Partly Cloudy SCT090 22.7 0.2 23% 75.9 0.0
05 16:35 W 31 G 43 16.09 Partly Cloudy SCT080 22.8 0.8 23% 75.9 0.0
05 16:15 W 26 G 43 16.09 Mostly Cloudy BKN090 22.8 0.3 23% 75.92 0.0
05 15:55 W 33 G 48 16.09 Mostly Cloudy and Breezy BKN090 22.5 0.5 23% 75.95 0.0
05 15:35 W 37 G 52 16.09 Partly Cloudy and Breezy SCT080 SCT090 22.3 0.6 24% 75.97 0.0
05 15:15 W 31 G 43 16.09 Partly Cloudy SCT060 SCT090 22.6 1.2 24% 76 0.0
05 14:55 W 20 G 44 16.09 Mostly Cloudy SCT060 BKN090 21.4 3.1 30% 76.02 0.0
05 14:35 SW 31 G 44 16.09 Partly Cloudy SCT060 21.4 3.6 31% 76.07 0.0
05 14:15 SW 26 G 46 16.09 Partly Cloudy SCT070 20.2 3.3 33% 76.07 0.0
05 13:55 W 37 G 46 16.09 Mostly Cloudy and Breezy SCT070 BKN080 BKN120 20 3.4 34% 76.1 0.0
05 13:35 SW 28 16.09 Mostly Cloudy BKN075 BKN090 BKN120 19.7 3.5 34% 76.1 0.0
05 13:15 SW 35 G 59 16.09 Overcast and Breezy SCT026 BKN070 OVC085 18.7 3.8 37% 76.12 0.0
05 12:55 W 50 G 69 16.09 Overcast and Windy SCT035 BKN070 OVC085 17.5 5.3 45% 76.15 0.0
05 12:35 W 57 G 72 16.09 Overcast and Windy SCT050 BKN060 OVC070 18.2 2.3 35% 76.17 0.0
05 12:15 W 41 G 59 16.09 Overcast and Breezy SCT060 OVC070 18.7 2.5 34% 76.17 0.0
05 11:55 W 31 G 41 16.09 Overcast BKN070 OVC090 19.7 1.8 21.3 13 30% 76.15 0.0
05 11:35 W 33 G 46 16.09 Mostly Cloudy and Breezy SCT070 SCT080 BKN090 21 1.8 28% 76.15 0.0
05 11:15 SW 31 G 39 16.09 Partly Cloudy SCT090 20.7 1.7 28% 76.12 0.0
05 10:55 SW 28 G 37 16.09 Partly Cloudy SCT090 20.8 1.5 28% 76.1 0.0
05 10:35 W 13 16.09 Fair CLR 19.4 2.1 32% 76.1 0.0
05 10:15 SW 15 16.09 Fair CLR 18.3 2.3 35% 76.1 0.0
05 09:55 W 11 16.09 Fair CLR 17.5 2.5 37% 76.1 0.0
05 09:35 W 13 16.09 Fair CLR 16.9 3.1 40% 76.1 0.0
05 09:15 W 13 16.09 Fair CLR 16.6 2.9 40% 76.12 0.0
05 08:55 W 6 16.09 Fair CLR 16 4.1 45% 76.12 0.0
05 08:35 Calm 16.09 Fair CLR 15.2 4.6 49% 76.12 0.0
05 08:15 W 6 16.09 Fair CLR 14.8 4.8 51% 76.12 0.0
05 07:55 W 6 16.09 Fair CLR 13.9 5.2 56% 76.15 0.0
05 07:35 W 9 16.09 Fair CLR 13.5 4.8 56% 76.15 0.0
05 07:15 W 7 16.09 Fair CLR 13.5 4.7 56% 76.12 0.0
05 06:55 W 13 16.09 Fair CLR 13.3 4.7 56% 76.1 0.0
05 06:35 NW 9 16.09 Fair CLR 13 4.5 57% 76.07 0.0
05 06:15 NW 9 16.09 Fair CLR 13 4.5 57% 76.07 0.0
05 05:55 NW 11 16.09 Fair CLR 13.2 4.4 18 13 55% 76.07 0.0
05 05:35 NW 9 16.09 Fair CLR 13 4.1 55% 76.07 0.0
05 05:15 W 7 16.09 Fair CLR 13.5 3.8 52% 76.05 0.0
05 04:55 W 15 16.09 Fair CLR 14 3.5 49% 76.07 0.0
05 04:35 W 17 16.09 Fair CLR 14.5 3.1 47% 76.07 0.0
05 04:15 W 20 16.09 Fair CLR 14.7 3 46% 76.07 0.0
05 03:55 W 15 16.09 Fair CLR 14 3.2 48% 76.05 0.0
05 03:35 NW 6 16.09 Fair CLR 13.5 3.1 50% 76.05 0.0
05 03:15 W 9 16.09 Fair CLR 14.4 3 47% 76.05 0.0
05 02:55 W 15 16.09 Fair CLR 14.9 2.8 44% 76.07 0.0
05 02:35 W 19 16.09 Fair CLR 15.4 2.1 41% 76.07 0.0
05 02:15 W 15 16.09 Fair CLR 15.1 2.1 42% 76.07 0.0
05 01:55 W 17 16.09 Fair CLR 15.5 1.9 40% 76.07 0.0
05 01:35 W 7 16.09 Fair CLR 15.5 0.8 37% 76.07 0.0
05 01:15 W 9 16.09 Fair CLR 16.4 1.5 37% 76.1 0.0
05 00:55 W 15 16.09 Fair CLR 17 1.3 35% 76.1 0.0
05 00:35 W 15 16.09 Fair CLR 17.5 0.7 32% 76.07 0.0
05 00:15 W 17 16.09 Fair CLR 17.8 -0.3 30% 76.07 0.0
04 23:55 W 20 16.09 Fair CLR 18 -1.9 25.2 17 26% 76.07 0.0
04 23:35 W 13 16.09 Fair CLR 17 -1.7 28% 76.1 0.0
04 23:15 W 9 16.09 Fair CLR 17.4 -2 27% 76.07 0.0
04 22:55 W 11 16.09 Fair CLR 18.7 -2.6 24% 76.1 0.0
04 22:35 W 13 16.09 Fair CLR 19.5 -3.1 22% 76.07 0.0
04 22:15 W 20 G 35 16.09 Fair CLR 20.1 -4 19% 76.07 0.0
04 21:55 W 24 16.09 Fair CLR 20.5 -5.1 17% 76.07 0.0
04 21:35 W 24 G 35 16.09 Fair CLR 21.1 -6.3 15% 76.05 0.0
04 21:15 W 22 G 41 16.09 Fair CLR 21.7 -6.6 14% 76.02 0.0
04 20:55 W 26 16.09 Fair CLR 22.1 -6.4 14% 76 0.0
04 20:35 W 30 G 39 16.09 Fair CLR 22.5 -6 14% 76 0.0
04 20:15 W 30 G 46 16.09 Fair CLR 23 -5.2 15% 75.97 0.0
04 19:55 W 31 G 43 16.09 Fair CLR 23.4 -4.5 15% 75.95 0.0
04 19:35 W 30 G 39 16.09 Fair CLR 23.7 -3.2 16% 75.95 0.0
04 19:15 W 30 G 44 16.09 Fair CLR 24 -2.7 17% 24 75.95 0.0
04 18:55 W 31 G 44 16.09 Fair CLR 24.4 -3.1 16% 24 75.9 0.0
04 18:35 W 30 G 44 16.09 Fair CLR 24.7 -3.5 15% 25 75.95 0.0
04 18:15 W 35 G 46 16.09 Fair and Breezy CLR 25 -4.1 14% 25 75.97 0.0
04 17:55 W 33 G 52 16.09 Fair and Breezy CLR 25.2 -4.2 27.6 21.4 14% 25 75.97 0.0
04 17:35 W 31 G 46 16.09 Fair CLR 25.6 -4.2 14% 25 75.97 0.0
04 17:15 W 33 G 44 16.09 Fair and Breezy CLR 25.9 -4.5 13% 25 75.97 0.0
04 16:55 W 35 G 44 16.09 Fair and Breezy CLR 26.3 -4.5 13% 25 75.97 0.0
04 16:35 W 35 G 46 16.09 Fair and Breezy CLR 27.3 -4.7 12% 26 76 0.0
04 16:15 W 35 G 46 16.09 Fair and Breezy CLR 27.5 -5.1 11% 26 76 0.0
04 15:55 W 24 G 48 16.09 Fair CLR 27.5 -5.9 11% 26 76.02 0.0
04 15:35 W 30 G 43 16.09 Fair CLR 26.9 -5.4 11% 26 76.05 0.0
04 15:15 W 39 G 59 16.09 Fair and Breezy CLR 27.1 -5.6 11% 26 76.07 0.0
04 14:55 W 26 G 43 16.09 Fair CLR 26.3 -4.8 12% 25 76.07 0.0
04 14:35 W 35 G 46 16.09 Fair and Breezy CLR 26.5 -4.9 12% 26 76.12 0.0
04 14:15 W 26 G 35 16.09 Fair CLR 25.7 -3.2 15% 25 76.12 0.0
04 13:55 W 26 G 50 16.09 Fair CLR 25.6 -2.9 15% 25 76.15 0.0
04 13:35 SW 31 G 43 16.09 Fair CLR 24.6 -3 16% 25 76.17 0.0
04 13:15 SW 20 G 37 16.09 Fair CLR 23.8 -4 15% 76.17 0.0
04 12:55 W 30 G 37 16.09 Fair CLR 23.9 -4 15% 24 76.2 0.0
04 12:35 SW 26 G 31 16.09 Fair CLR 22.5 -1.3 20% 76.2 0.0
04 12:15 W 20 G 30 16.09 Fair CLR 21.7 -1.8 21% 76.23 0.0
04 11:55 SW 19 16.09 Fair CLR 21.4 -1 21.4 14.3 22% 76.28 0.0
04 11:35 W 19 16.09 Fair CLR 20.9 -0.1 25% 76.3 0.0
04 11:15 SW 13 16.09 Fair CLR 20.5 0.8 27% 76.3 0.0
04 10:55 W 24 G 35 16.09 Fair CLR 19.9 0.6 28% 76.3 0.0
04 10:35 W 31 G 41 16.09 Fair CLR 19.5 0.7 29% 76.28 0.0
04 10:15 W 44 G 54 16.09 Fair and Windy CLR 19.2 0.3 28% 76.28 0.0
04 09:55 W 35 G 44 16.09 Fair and Breezy CLR 18.6 1.6 32% 76.28 0.0
04 09:35 W 35 16.09 Fair and Breezy CLR 18 1.7 34% 76.3 0.0
04 09:15 W 24 G 31 16.09 Fair CLR 17.6 1.3 34% 76.3 0.0
04 08:55 W 19 16.09 Fair CLR 17.4 0.6 32% 76.3 0.0
04 08:35 W 20 16.09 Fair CLR 17.1 0.4 32% 76.3 0.0
04 08:15 W 26 16.09 Fair CLR 17 0.2 32% 76.28 0.0
04 07:55 W 24 G 31 16.09 Fair CLR 17 0.4 33% 76.25 0.0
04 07:35 W 19 16.09 Fair CLR 16.7 0 32% 76.25 0.0
04 07:15 W 22 G 31 16.09 Fair CLR 16.9 -0.3 31% 76.23 0.0
04 06:55 W 22 16.09 Fair CLR 16 -0.2 33% 76.23 0.0
04 06:35 W 24 16.09 Fair CLR 15.3 0 35% 76.2 0.0
04 06:15 W 26 16.09 Fair CLR 14.3 0.3 39% 76.17 0.0
04 05:55 W 24 16.09 Fair CLR 14.6 0.1 17 14.3 37% 76.17 0.0
04 05:35 W 22 16.09 Fair CLR 15 0 36% 76.12 0.0
04 05:15 W 22 16.09 Fair CLR 15.2 0.1 36% 76.1 0.0
04 04:55 W 24 16.09 Fair CLR 15.5 0.3 36% 76.1 0.0
04 04:35 W 19 16.09 Fair CLR 15.5 1.2 38% 76.1 0.0
04 04:15 W 22 16.09 Fair CLR 15.9 1.7 39% 76.1 0.0
04 03:55 W 19 16.09 Fair CLR 16.1 2.5 40% 76.1 0.0
04 03:35 W 22 16.09 Fair CLR 16.1 3.3 43% 76.1 0.0
04 03:15 W 19 16.09 Fair CLR 15.3 4.7 49% 76.12 0.0
04 02:55 W 15 16.09 Fair CLR 15.5 5 50% 76.15 0.0
04 02:35 W 17 16.09 Fair CLR 15.2 5.3 52% 76.15 0.0
04 02:15 W 11 16.09 Fair CLR 15.2 6.4 56% 76.15 0.0
04 01:55 SW 6 16.09 Fair CLR 14.4 6.8 61% 76.17 0.0
04 01:35 Calm 16.09 Fair CLR 15.1 6.1 55% 76.17 0.0
04 01:15 Calm 16.09 Fair CLR 15.8 5.8 52% 76.17 0.0
04 00:55 SW 7 16.09 Fair CLR 15.9 5.8 51% 76.2 0.0
04 00:35 S 6 16.09 Fair CLR 17 5.5 47% 76.2 0.0
04 00:15 S 9 16.09 Fair CLR 16.8 5.3 47% 76.2 0.0
03 23:55 S 9 16.09 Fair CLR 16.2 6 24 15.5 51% 76.2 0.0
03 23:35 S 9 16.09 Fair CLR 16.3 6 51% 76.2 0.0
03 23:15 SE 6 16.09 Fair CLR 16.5 5.7 49% 76.2 0.0
03 22:55 SE 6 16.09 Fair CLR 18.2 4.5 41% 76.2 0.0
03 22:35 SE 7 16.09 Fair CLR 17.4 5.7 46% 76.2 0.0
03 22:15 Calm 16.09 Fair CLR 17 6 49% 76.2 0.0
03 21:55 Calm 16.09 Fair CLR 15.8 7.7 59% 76.2 0.0
03 21:35 Calm 16.09 Fair CLR 16 7.6 58% 76.2 0.0
03 21:15 SW 6 16.09 Fair CLR 16.6 7.7 56% 76.17 0.0
03 20:55 SW 6 16.09 Fair CLR 18.2 6.5 47% 76.17 0.0
03 20:35 SW 6 16.09 Fair CLR 18.7 7.2 47% 76.17 0.0
03 20:15 SW 6 16.09 Fair CLR 20 5.7 39% 76.17 0.0
03 19:55 SW 7 16.09 Fair CLR 22 3.1 29% 76.17 0.0
03 19:35 SW 9 16.09 Fair CLR 23 2.7 26% 76.17 0.0
03 19:15 S 7 16.09 Fair CLR 22.2 5.3 33% 76.17 0.0
03 18:55 SE 7 16.09 Fair CLR 23.6 3.6 27% 76.17 0.0
03 18:35 SW 11 16.09 Fair CLR 23.8 3.2 26% 76.2 0.0
03 18:15 SW 15 16.09 Partly Cloudy SCT080 24 3.5 26% 25 76.2 0.0
03 17:55 S 7 16.09 Fair CLR 23.5 3.8 23.8 19 28% 76.2 0.0
03 17:35 S 7 16.09 Fair CLR 23.5 4 28% 76.2 0.0
03 17:15 E 17 16.09 Fair CLR 23.1 4.8 31% 76.2 0.0
03 16:55 NE 11 16.09 Fair CLR 22.9 5.1 32% 76.25 0.0
03 16:35 E 9 16.09 Fair CLR 23 5.1 31% 76.28 0.0
03 16:15 E 7 16.09 Partly Cloudy SCT080 22.8 5.1 32% 76.3 0.0
03 15:55 E 7 16.09 Fair CLR 22.7 5 32% 76.3 0.0
03 15:35 E 13 16.09 Fair CLR 23.3 4.6 30% 76.35 0.0
03 15:15 S 15 16.09 Fair CLR 22.6 4.2 30% 76.4 0.0
03 14:55 S 9 16.09 Fair CLR 22.9 4.3 30% 76.4 0.0
03 14:35 SE 17 16.09 Fair CLR 22.3 4.6 32% 76.45 0.0
03 14:15 SE 9 16.09 Fair CLR 21.5 4.6 33% 76.5 0.0
03 13:55 SE 7 16.09 Fair CLR 20.7 4.5 35% 76.5 0.0
03 13:35 S 9 16.09 Fair CLR 19.8 4.3 36% 76.53 0.0
03 12:55 SE 11 16.09 Fair CLR 19.9 4.6 37% 76.58 0.0
03 12:35 SE 9 16.09 Fair CLR 19.9 4.7 37% 76.58 0.0
03 12:15 E 9 16.09 Fair CLR 19.5 4.6 38% 76.61 0.0
03 11:55 SE 13 16.09 Fair CLR 19.1 5 19.3 7.8 40% 76.63 0.0
03 11:35 E 17 16.09 Fair CLR 19 4.7 39% 76.63 0.0
03 11:15 E 17 16.09 Fair CLR 18.5 4.6 40% 76.66 0.0
03 10:55 E 19 16.09 Fair CLR 17.8 5.6 45% 76.66 0.0
03 10:35 SE 15 16.09 Fair CLR 17 6 49% 76.68 0.0
03 10:15 E 13 16.09 Fair CLR 16.7 6.1 50% 76.68 0.0
03 09:55 E 9 16.09 Fair CLR 15.8 5.6 51% 76.71 0.0
03 09:35 E 6 16.09 Fair CLR 15.4 5.7 53% 76.68 0.0
03 09:15 E 7 16.09 Fair CLR 14.6 5.6 55% 76.68 0.0
03 08:55 E 6 16.09 Fair CLR 13.8 5.9 59% 76.68 0.0
03 08:35 Calm 16.09 Fair CLR 13.5 7.8 69% 76.68 0.0
03 08:15 Calm 16.09 Fair CLR 12.7 6.8 68% 76.71 0.0
03 07:55 Calm 16.09 Partly Cloudy SCT110 11.6 7.7 77% 76.68 0.0
03 07:35 Calm 16.09 Mostly Cloudy BKN110 10 7.4 84% 76.68 0.0
03 07:15 NW 6 16.09 Partly Cloudy SCT110 9.1 7.1 87% 76.68 0.0
03 06:55 NW 6 16.09 Fair CLR 8.5 6.6 88% 76.63 0.0
03 06:35 NW 6 16.09 Partly Cloudy SCT110 8.2 6.7 90% 76.63 0.0
03 06:15 Calm 16.09 Partly Cloudy SCT110 7.8 6.6 92% 76.61 0.0
03 05:55 Calm 16.09 Fair CLR 8.1 6.8 12.1 8.1 92% 76.61 0.0
03 05:35 N 6 16.09 Partly Cloudy SCT110 8.3 6.8 90% 76.58 0.0
03 05:15 NW 6 16.09 Partly Cloudy SCT110 8.4 6.8 90% 76.61 0.0
03 04:55 NW 7 16.09 Fair CLR 8.5 6.8 89% 8 76.61 0.0
03 04:35 NW 6 16.09 Fair CLR 8.7 7 89% 76.61 0.0
03 04:15 Calm 16.09 Fair CLR 10 6.6 80% 76.63 0.0
03 03:55 Calm 16.09 Fair CLR 8.9 7.1 89% 76.63 0.0
03 03:35 Calm 16.09 Fair CLR 9.1 7.2 88% 76.63 0.0
Date Time (mdt) Wind (kph) Vis. (km) Weather Sky Cond. Air Dwpt Max. Min. Relative Humidity Wind Chill (°C) Heat Index (°C) altimeter (cm) sea level (mb) 1 hr 3 hr 6 hr
6 hour
Temperature (ºC) Pressure Precipitation (cm)